Stündliche Wetter Cavalcante

Heute, 28 Oktober, Mittwoch

Zeit Temperatur Niederschläge Wind Luftdruck Luftfeuchtigkeit
00:00 +23°C° 2.2 mm 1 m/S 687 mmHg 90%
01:00 +23°C° 0.1 mm 1 m/S 687 mmHg 90%
02:00 +23°C° 0.1 mm 1 m/S 687 mmHg 89%
03:00 +21°C° 0 mm 0 m/S 686 mmHg 89%
04:00 +21°C° 0.1 mm 0 m/S 687 mmHg 89%
05:00 +21°C° 0.1 mm 0 m/S 687 mmHg 89%
06:00 +21°C° 0.1 mm 0 m/S 688 mmHg 89%
07:00 +22°C° 0.8 mm 0 m/S 688 mmHg 88%
08:00 +24°C° 0.8 mm 1 m/S 689 mmHg 86%
09:00 +25°C° 0.8 mm 1 m/S 690 mmHg 84%
10:00 +25°C° 1.7 mm 1 m/S 690 mmHg 83%
11:00 +26°C° 1.7 mm 1 m/S 689 mmHg 81%
12:00 +26°C° 1.7 mm 2 m/S 689 mmHg 80%
13:00 +26°C° 1 mm 1 m/S 689 mmHg 78%
14:00 +26°C° 1 mm 1 m/S 688 mmHg 77%
15:00 +27°C° 1 mm 1 m/S 687 mmHg 76%
16:00 +26°C° 0.2 mm 1 m/S 687 mmHg 78%
17:00 +25°C° 0.2 mm 1 m/S 687 mmHg 81%
18:00 +23°C° 0.2 mm 0 m/S 687 mmHg 84%
19:00 +22°C° 0 mm 0 m/S 687 mmHg 84%
20:00 +22°C° 0 mm 0 m/S 688 mmHg 85%
21:00 +22°C° 0 mm 0 m/S 689 mmHg 85%
22:00 +22°C° 0 mm 0 m/S 688 mmHg 84%
23:00 +22°C° 0 mm 0 m/S 688 mmHg 83%

Morgen, 29 Oktober, Donnerstag

Zeit Temperatur Niederschläge Wind Luftdruck Luftfeuchtigkeit
00:00 +22°C° 0 mm 0 m/S 688 mmHg 82%
01:00 +24°C° 0 mm 1 m/S 688 mmHg 82%
02:00 +24°C° 0 mm 1 m/S 687 mmHg 82%
03:00 +24°C° 0 mm 1 m/S 687 mmHg 82%
04:00 +23°C° 0 mm 1 m/S 687 mmHg 84%
05:00 +23°C° 0 mm 1 m/S 687 mmHg 87%
06:00 +21°C° 0 mm 0 m/S 688 mmHg 89%
07:00 +25°C° 0 mm 1 m/S 688 mmHg 82%
08:00 +27°C° 0 mm 1 m/S 689 mmHg 75%
09:00 +29°C° 0 mm 1 m/S 690 mmHg 68%
10:00 +30°C° 0.3 mm 1 m/S 690 mmHg 63%
11:00 +31°C° 0.3 mm 1 m/S 689 mmHg 58%
12:00 +33°C° 0.3 mm 1 m/S 689 mmHg 52%
13:00 +32°C° 1.1 mm 1 m/S 688 mmHg 55%
14:00 +31°C° 1.1 mm 1 m/S 687 mmHg 58%
15:00 +30°C° 1.1 mm 1 m/S 686 mmHg 61%
16:00 +29°C° 0.8 mm 1 m/S 686 mmHg 65%
17:00 +28°C° 0.8 mm 1 m/S 686 mmHg 70%
18:00 +27°C° 0.8 mm 1 m/S 686 mmHg 74%
19:00 +26°C° 1.8 mm 1 m/S 687 mmHg 80%
20:00 +25°C° 1.8 mm 1 m/S 687 mmHg 86%
21:00 +24°C° 1.8 mm 1 m/S 688 mmHg 92%
22:00 +24°C° 1.7 mm 1 m/S 688 mmHg 91%
23:00 +24°C° 1.7 mm 1 m/S 688 mmHg 91%

übermorgen, 30 Oktober, Freitag

Zeit Temperatur Niederschläge Wind Luftdruck Luftfeuchtigkeit
00:00 +24°C° 1.7 mm 1 m/S 688 mmHg 91%
01:00 +23°C° 1.3 mm 1 m/S 687 mmHg 91%
02:00 +23°C° 1.3 mm 1 m/S 687 mmHg 91%
03:00 +23°C° 1.3 mm 1 m/S 687 mmHg 92%
04:00 +23°C° 1.5 mm 1 m/S 687 mmHg 92%
05:00 +23°C° 1.5 mm 1 m/S 687 mmHg 93%
06:00 +23°C° 1.5 mm 1 m/S 688 mmHg 93%
07:00 +24°C° 1.1 mm 1 m/S 688 mmHg 87%
08:00 +26°C° 1.1 mm 1 m/S 689 mmHg 81%
09:00 +28°C° 1.1 mm 1 m/S 690 mmHg 75%
10:00 +28°C° 2 mm 2 m/S 689 mmHg 74%
11:00 +29°C° 2 mm 2 m/S 689 mmHg 72%
12:00 +29°C° 2 mm 2 m/S 689 mmHg 70%
13:00 +28°C° 1.7 mm 2 m/S 688 mmHg 75%
14:00 +27°C° 1.7 mm 2 m/S 687 mmHg 81%
15:00 +26°C° 1.7 mm 2 m/S 687 mmHg 86%
16:00 +25°C° 2.4 mm 2 m/S 687 mmHg 89%
17:00 +24°C° 2.4 mm 2 m/S 687 mmHg 92%
18:00 +23°C° 2.4 mm 2 m/S 688 mmHg 94%
19:00 +23°C° 1.7 mm 2 m/S 688 mmHg 95%
20:00 +23°C° 1.7 mm 1 m/S 689 mmHg 95%
21:00 +23°C° 1.7 mm 1 m/S 689 mmHg 95%
22:00 +23°C° 0.2 mm 1 m/S 689 mmHg 94%
23:00 +23°C° 0.2 mm 1 m/S 689 mmHg 94%

31 Oktober, Samstag

Zeit Temperatur Niederschläge Wind Luftdruck Luftfeuchtigkeit
00:00 +21°C° 0.2 mm 0 m/S 689 mmHg 93%
01:00 +23°C° 0.3 mm 1 m/S 688 mmHg 93%
02:00 +23°C° 0.3 mm 1 m/S 688 mmHg 92%
03:00 +23°C° 0.3 mm 1 m/S 688 mmHg 92%
04:00 +22°C° 0.7 mm 1 m/S 688 mmHg 93%
05:00 +22°C° 0.7 mm 1 m/S 689 mmHg 94%
06:00 +22°C° 0.7 mm 1 m/S 689 mmHg 96%
07:00 +23°C° 0.2 mm 1 m/S 690 mmHg 94%
08:00 +21°C° 0.2 mm 0 m/S 690 mmHg 93%
09:00 +21°C° 0.2 mm 0 m/S 690 mmHg 91%
10:00 +23°C° 0.8 mm 1 m/S 690 mmHg 91%
11:00 +24°C° 0.8 mm 1 m/S 690 mmHg 91%
12:00 +24°C° 0.8 mm 1 m/S 690 mmHg 91%
13:00 +23°C° 2.6 mm 1 m/S 689 mmHg 92%
14:00 +23°C° 2.6 mm 1 m/S 689 mmHg 94%
15:00 +23°C° 2.6 mm 1 m/S 688 mmHg 96%
16:00 +22°C° 1 mm 1 m/S 689 mmHg 96%
17:00 +22°C° 1 mm 1 m/S 689 mmHg 96%
18:00 +22°C° 1 mm 1 m/S 689 mmHg 96%
19:00 +22°C° 0.5 mm 1 m/S 689 mmHg 96%
20:00 +22°C° 0.5 mm 1 m/S 689 mmHg 97%
21:00 +22°C° 0.5 mm 1 m/S 690 mmHg 97%
22:00 +22°C° 0.1 mm 1 m/S 690 mmHg 97%
23:00 +22°C° 0.1 mm 1 m/S 689 mmHg 96%

1 November, Sonntag

Zeit Temperatur Niederschläge Wind Luftdruck Luftfeuchtigkeit
00:00 +21°C° 0.1 mm 1 m/S 689 mmHg 96%
01:00 +21°C° 0 mm 1 m/S 689 mmHg 96%
02:00 +21°C° 0 mm 1 m/S 688 mmHg 96%
03:00 +19°C° 0 mm 0 m/S 688 mmHg 95%
04:00 +19°C° 0 mm 0 m/S 688 mmHg 95%
05:00 +19°C° 0 mm 0 m/S 688 mmHg 95%
06:00 +19°C° 0 mm 0 m/S 689 mmHg 95%
07:00 +22°C° 0 mm 1 m/S 689 mmHg 91%
08:00 +23°C° 0 mm 1 m/S 689 mmHg 87%
09:00 +24°C° 0 mm 1 m/S 690 mmHg 84%
10:00 +25°C° 0.4 mm 1 m/S 690 mmHg 81%
11:00 +25°C° 0.4 mm 2 m/S 690 mmHg 78%
12:00 +26°C° 0.4 mm 2 m/S 689 mmHg 76%
13:00 +25°C° 0.4 mm 2 m/S 689 mmHg 80%
14:00 +24°C° 0.4 mm 2 m/S 688 mmHg 84%
15:00 +23°C° 0.4 mm 1 m/S 687 mmHg 89%
16:00 +23°C° 0 mm 1 m/S 687 mmHg 88%
17:00 +23°C° 0 mm 1 m/S 687 mmHg 88%
18:00 +23°C° 0 mm 1 m/S 687 mmHg 88%
19:00 +22°C° 0 mm 1 m/S 687 mmHg 88%
20:00 +22°C° 0 mm 1 m/S 687 mmHg 88%
21:00 +22°C° 0 mm 1 m/S 688 mmHg 88%
22:00 +22°C° 0 mm 1 m/S 688 mmHg 89%
23:00 +21°C° 0 mm 1 m/S 688 mmHg 90%

2 November, Montag

Zeit Temperatur Niederschläge Wind Luftdruck Luftfeuchtigkeit
00:00 +21°C° 0 mm 1 m/S 688 mmHg 91%
01:00 +22°C° 0 mm 1 m/S 687 mmHg 90%
02:00 +22°C° 0 mm 1 m/S 687 mmHg 90%
03:00 +22°C° 0 mm 1 m/S 687 mmHg 90%
04:00 +22°C° 0 mm 1 m/S 687 mmHg 90%
05:00 +22°C° 0 mm 1 m/S 687 mmHg 90%
06:00 +22°C° 0 mm 1 m/S 687 mmHg 89%
07:00 +23°C° 0 mm 1 m/S 688 mmHg 84%
08:00 +25°C° 0 mm 1 m/S 689 mmHg 78%
09:00 +26°C° 0 mm 1 m/S 690 mmHg 72%
10:00 +27°C° 0.7 mm 1 m/S 689 mmHg 71%
11:00 +28°C° 0.7 mm 2 m/S 689 mmHg 69%
12:00 +28°C° 0.7 mm 3 m/S 689 mmHg 68%
13:00 +28°C° 1.6 mm 3 m/S 688 mmHg 70%
14:00 +28°C° 1.6 mm 3 m/S 687 mmHg 72%
15:00 +28°C° 1.6 mm 3 m/S 687 mmHg 74%
16:00 +27°C° 0.9 mm 2 m/S 686 mmHg 78%
17:00 +26°C° 0.9 mm 1 m/S 686 mmHg 82%
18:00 +25°C° 0.9 mm 1 m/S 686 mmHg 86%
19:00 +24°C° 0.4 mm 1 m/S 687 mmHg 88%
20:00 +24°C° 0.4 mm 1 m/S 687 mmHg 89%
21:00 +23°C° 0.4 mm 1 m/S 687 mmHg 90%
22:00 +21°C° 0.7 mm 0 m/S 687 mmHg 90%
23:00 +21°C° 0.7 mm 0 m/S 687 mmHg 90%
Mehr zeigen